Showing default

YAOGAN 25B, 40339

Orbit data source: Space-Track

YAOGAN 25B, 40339 is a payload satellite owned by PLA GAD (CN) in LEO that was launched on Wed, 10 Dec 2014 UTC via a CHANG ZHENG 4C launch vehicle from the Jiuquan Satellite Launch Center, China (JSC). Payload-class satellites include a variety of spacecraft equipped with specific instruments for various scientific and technological missions. These include communications satellites like Starlink; space stations such as the ISS; scientific satellites like the Hubble; Earth observation satellites from companies like Planet Labs, Umbra, and HawkEye 360; GPS; miniature CubeSats for education and research; and military/defense satellites.

Loading next visibility...
Identifier
40339, 2014-080B
Orbit
LEO
Country
Flag of CNCN / PRC
Related business
Manufacturer
CAST
Mission
Operational Defense Sigint
Bus & Motor
Unknown
Mass
~500 kg wet, ~500 kg dry
Launch date (UTC)
2014-12-10 (12 years ago)
Launch vehicle
CHANG ZHENG 4C
Launch site
Jiuquan Satellite Launch Center, China (JSC)
Object type
Payload
Rocket body
Debris
Shape & HBR
Box + 2 Pan, 0.5 m
Radar Cross Section
0.446 m², Large (>1 m²)

Expand to show TLE details & history
Last TLE update: 22 hours ago

TLE from 22 hours ago
0 YAOGAN 25B
1 40339U 14080B   26172.50588265 -.00000241  00000-0 -16846-3 0  9996
2 40339  63.3899 299.7804 0367217   8.9738 351.7618 13.45433478566212
Epoch: 2026-06-21T12:08Z
TLE epoch observation values (Epoch: 2026-06-21T12:08:28.260Z)
Latitude
-0.00005°
Longitude
-152.04255°
Altitude
819.687 km
Speed
7.578 km/s
True Right ascension
19h 59m 07s
True Declination
0° 00' 00"
Sunlit
Object was in full shadow at epoch
Visualization orbit readout
Latitude
Unknown
Longitude
Unknown
Altitude
Unknown
Speed
Unknown
Apparent Right ascension
Unknown
Apparent Declination
Unknown
Sunlit
N/A
Visualization observer readout
Local Sidereal Time
21:36:05
Azimuth
Unknown
Elevation
Unknown
Doppler factor
Unknown
Orbital elements
Apogee altitude
1,362.102 km
Perigee altitude
813.769 km
Semi-major axis
7,466.073 km
Eccentricity
0.03672
Inclination
63.3899°
RAAN
299.7804°
Arg. of periapsis
8.9738°
True anomaly
351.13022°
Mean anomaly
351.7618°
Eccentric anomaly
351.44896°
Mean motion
3.36438 °/min
Orbital period
107 mins
BSTAR
-0.00016846
Loading maneuver chart data...
Computing Atmospheric mass density...
Loading historical data...
Loading historical data...
Loading historical data...
Loading historical data...
Loading historical data...
Loading historical data...
Loading historical data...

Documentation

Showing up to 5 results
|